Current Version              Previous Version:    01  02  03  04  05  06  07  08  09  10  11  12  13  14  15  16  17  18  19  20  21  22  23  24  25  26  27  28  29  30  
   31  32  33  34  35  36  37  38  39  40  41  42  43  44  45  46  47  48  49  50  51  52  53  54  55  56  57  58  59  60  

[Printable]
658
ASUS44 KEWX 252010
RWRTX
SOUTH TEXAS REGIONAL WEATHER ROUNDUP
NATIONAL WEATHER SERVICE AUSTIN/SAN ANTONIO TX
300 PM CDT SAT OCT 25 2014

NOTE: "FAIR" INDICATED FEW OR NO CLOUDS BELOW 12,000 FEET WITH NO
SIGNIFICANT WEATHER AND/OR OBSTRUCTIONS TO VISIBILITY.

* - THESE STATIONS ARE NOT NWS OR FAA STATIONS...AND ARE NOT SUBJECT
    TO NWS AND FAA QUALITY CONTROL.

TXZ171-172-183>190-252100-
TEXAS HILL COUNTRY AND EDWARDS PLATEAU

CITY           SKY/WX    TMP DP  RH WIND       PRES   REMARKS
JUNCTION       SUNNY     86  54  33 S9        30.13F
*LLANO         NOT AVBL
BURNET         SUNNY     85  57  38 VRB7      30.14F
*HORSESHOE BAY SUNNY     87  55  34 CALM      30.12F
*KERRVILLE     SUNNY     83  57  41 SE9       30.14F
*FREDERICKSBRG SUNNY     82  55  39 S5        30.14F
*ROCKSPRINGS   SUNNY     82  54  36 S7        30.18F
*BOERNE STAGE  SUNNY     86  52  30 S6        30.14F
*CASTROVILLE   SUNNY     88  51  28 SE3       30.12F
HONDO          SUNNY     84  55  36 S12       30.13F
*UVALDE        SUNNY     88  58  36 S6        30.11F
DEL RIO        SUNNY     85  60  42 SE13      30.09F
LAUGHLIN AFB   SUNNY     85  64  49 SE13      30.10F
CARRIZO SPRGS  SUNNY     88  57  35 S9        30.08F
$$

TXZ173-191>194-202-209-217>225-228-252100-
CENTRAL AND SOUTH CENTRAL TEXAS

CITY           SKY/WX    TMP DP  RH WIND       PRES   REMARKS
GEORGETOWN     SUNNY     84  61  45 VRB6      30.10F
AUSTIN/BERGSTM MOSUNNY   86  59  39 S3        30.10F
AUSTIN/MABRY   SUNNY     86  59  39 CALM      30.11F
*AUSTIN/EXEC   SUNNY     86  59  39 SE7       30.11F
*LAGO VISTA    SUNNY     86  56  36 SW6       30.13F
SAN MARCOS     SUNNY     88  57  35 CALM      30.11F
NEW BRAUNFELS  SUNNY     87  56  34 VRB3      30.10F
RANDOLPH AFB   SUNNY     86  56  35 S6        30.11F
PT SAN ANTONIO SUNNY     87  56  34 VRB5      30.10F
SAN ANTONIO    SUNNY     86  56  35 SW5       30.11F
STINSON FIELD  SUNNY     88  56  33 VRB6      30.09F
*PLEASANTON    SUNNY     87  55  33 CALM      30.11F
*LA GRANGE     SUNNY     86  62  44 CALM      30.09F
*GIDDINGS      SUNNY     85  59  42 SE5       30.14F
*GONZALES      SUNNY    N/A N/A N/A CALM      30.10F
$$

TXZ163>164-176>182-195>201-210>213-226-227-235-252100-
SOUTHEAST TEXAS

CITY           SKY/WX    TMP DP  RH WIND       PRES   REMARKS
COLLEGE STN    SUNNY     83  60  45 W5        30.10F
*BRYAN         SUNNY     84  61  46 S3        30.12F
*CALDWELL      SUNNY     84  57  39 CALM      30.14F
*CROCKETT      SUNNY     86  64  48 NW5       30.14F
*BRENHAM       SUNNY     85  59  40 NW3       30.12S
HUNTSVILLE     SUNNY     85  61  44 CALM      30.11F
CONROE         SUNNY     84  59  42 CALM      30.11F
HOUSTON BUSH   SUNNY     84  58  40 CALM      30.11F
HOUSTON HOBBY  SUNNY     83  53  35 CALM      30.10F
*HOUSTON SW AP SUNNY     75  51  43 CALM      30.11F
PEARLAND       SUNNY     83  56  39 VRB5      30.13F
HOUSTON HOOKS  SUNNY     84  58  40 CALM      30.11F
ELLINGTON FLD  SUNNY     81  57  44 CALM      30.12F
SUGAR LAND     SUNNY     83  57  41 VRB3      30.11F
*HOUSTON EXEC  SUNNY     82 N/A N/A CALM      30.12F
*CLEVELAND MUN NOT AVBL
*WHARTON       SUNNY     84  56  38 E8        30.11F
*COLUMBUS      FAIR      85  61  44 E5        30.10F
$$

TXZ214>216-236>238-252100-
THE UPPER TEXAS COAST

CITY           SKY/WX    TMP DP  RH WIND       PRES   REMARKS
*ORANGE        SUNNY     80  49  33 S3        30.13F
PORT ARTHUR    SUNNY     82  49  31 CALM      30.11F
GALVESTON      SUNNY     77  58  51 SE9       30.13F
ANGLETON       SUNNY     80  56  43 VRB3      30.11F
*BAY CITY        N/A     82  54  37 CALM      30.11F
PALACIOS       SUNNY     81  58  45 SE10      30.11F
$$

TXZ229>234-239>247-252100-
TEXAS COASTAL BEND AND RIO GRANDE PLAINS

CITY           SKY/WX    TMP DP  RH WIND       PRES   REMARKS
VICTORIA       SUNNY     88  59  37 E6        30.10F
*BEEVILLE      SUNNY     87  56  35 CALM      30.10F
ROCKPORT       SUNNY     81  64  56 SE8       30.10F
*PORT ARANSAS  SUNNY     79  66  65 E9        30.11F
*PORT LAVACA   SUNNY     82  59  45 SE6       30.11F
*INGLESIDE     SUNNY     84  63  48 E9        30.11F
CORPUS CHRISTI MOSUNNY   84  59  42 SE7       30.11F
CORPUS NAS     SUNNY     81  67  62 E8        30.11F
*ROBSTOWN      HVY RAIN  85  59  41 NE8       30.10F
ALICE          MOSUNNY   88  60  38 MISG      30.09F
KINGSVILLE NAS SUNNY     88  63  43 E9        30.09F
COTULLA        SUNNY     89  55  31 VRB6      30.09F
*FAITH RANCH   SUNNY     88  57  35 S9        30.11F
LAREDO         SUNNY     88  58  36 VRB3      30.11F
$$

TXZ248>255-252100-
DEEP SOUTH TEXAS

CITY           SKY/WX    TMP DP  RH WIND       PRES   REMARKS
BROWNSVILLE    MOSUNNY   85  66  53 NE12      30.09F
PORT ISABEL    SUNNY     82  66  58 NE10      30.10F
*SOUTH PADRE   SUNNY    N/A N/A N/A NE8       30.10F
HARLINGEN      MOSUNNY   85  65  51 E7        30.08F
*HEBBRONVILLE  SUNNY     86  53  32 SE6       30.11F
MCALLEN        SUNNY     85  61  44 CALM      30.09F
*WESLACO       MOSUNNY   87  60  40 CALM      30.08F
FALFURRIAS     SUNNY     87  60  40 E5        30.09F
EDINBURG       SUNNY     87  57  35 E6        30.10F
*ZAPATA        SUNNY     89  54  29 E6        30.08F
$$

TXZ213>215-236>238-242>244-246-247-251-254-255-252100-
CMAN STATIONS

STATION/POSITION TIME  TEMP    WIND        PRES    WAVE
                       AIR SEA DIR/SP/G            HT/PER
                 (UTC) (F)     (DEG/KT/KT) (MB)    (FT/S)
SABINE PASS      2000   72 72  140/  6/  7 1020.1
SEA RIM ST PARK  2000   72     170/  6/  8 1020.5
NORTH JETTY/GLS  2000   74 75  160/  5/  5   N/A
EAGLE POINT      2000   74 76  130/  3/  4 1020.1
MORGANS POINT    2000   76     160/  5/  6 1019.9
MISSION/ARANSAS  1900          140/  6     1021.0
PORT O`CONNOR    2000          120/  7/  8   N/A
PORT ARANSAS     2000   75 80   80/  9/ 10 1020.9
MALAQUITE BEACH  2000   76 79   50/  7/  9 1019.3
BAFFIN BAY       2000   77 83   70/  9/ 12 1019.5
PORT ISABEL      2000   78 79   20/  7/ 11 1019.3
$$

GMZ080-GMZ150>470-252100-
OFFSHORE BUOY REPORTS

STATION/POSITION TIME  TEMP    WIND        PRES    WAVE
                       AIR SEA DIR/SP/G            HT/PER
                 (UTC) (F)     (DEG/KT/KT) (MB)    (FT/S)
20 E GALVESTON   2000   73 78   90/  4/  6 1019.9    1/ 7
90 E PT ARANSAS  2000   76 81   70/  4/  8 1020.4    2/ 8
35 NE PT MANSFLD 2000   78 81   50/  6/  8 1019.2    2/ 8
200 E PT ISABEL  2000   77 81   50/  6/ 10 1019.0    3/ 7
$$